Terminal Aerodrome Forecast
Issued by NWS

Current Version | Previous Version | Text Only | Print | Product List | Glossary On
Versions: 1 2 3 4 5 6 7 8 9 10 11 12 13 14 15 16 17 18 19 20 21 22 23 24 25 26 27 28 29 30 31 32 33 34 35 36 37 38 39 40 41 42 43 44 45 46 47 48 49
000
FTUS41 KCTP 302351
TAFAOO
TAF
KAOO 302351Z 0100/0124 20006KT P6SM FEW070
     FM010600 00000KT P6SM BKN050
     FM010900 00000KT 4SM BR OVC015
     FM011700 21006KT P6SM OVC250=

USA.gov is the U.S. government's official web portal to all federal, state and local government web resources and services.